Weather History for Akron Canton, OH

Change the Weather History Date:

Sunday, April 21, 2013

  Actual Average Record
Temperature  
Mean Temperature 40 °F 51 °F  
Max Temperature 51 °F 62 °F 83 °F (1954)
Min Temperature 28 °F 41 °F 22 °F (1904)
Degree Days  
Heating Degree Days 25 14  
Month to date heating degree days 335 368  
Since 1 July heating degree days 5539 5763  
Cooling Degree Days 0 0  
Month to date cooling degree days 7 0  
Year to date cooling degree days 7 0  
Moisture  
Dew Point 24 °F    
Average Humidity 56    
Maximum Humidity 78    
Minimum Humidity 33    
Precipitation  
Precipitation 0.00 in 0.12 in 0.78 in (1961)
Month to date precipitation 3.20 2.52  
Year to date precipitation 9.45 10.42  
Snow  
Snow 0.00 in 0.00 in - ()
Month to date snowfall 0.3 2.5  
Since 1 July snowfall 47.2 47.2  
Snow Depth 0.00 in    
Sea Level Pressure  
Sea Level Pressure 30.52 in    
Wind  
Wind Speed 6 mph (ENE)    
Max Wind Speed 14 mph    
Max Gust Speed 20 mph    
Visibility 10 miles    
Events      
T = Trace of Precipitation, MM = Missing Value Source: NWS Daily Summary

Daily Weather History Graph

Daily Weather History Graph

Search for Another Location

Airport:

Trip Planner

Search our weather history database for the weather conditions in past years. The results will help you decide how hot, cold, wet, or windy it might be!

Date:

Astronomy

Apr. 21, 2013 Rise Set
Actual Time 6:37 AM EDT 8:12 PM EDT
Civil Twilight 6:08 AM EDT 8:41 PM EDT
Nautical Twilight 5:33 AM EDT 9:16 PM EDT
Astronomical Twilight 4:56 AM EDT 9:53 PM EDT
Moon 3:54 PM EDT 4:00 AM EDT
Length of Visible Light 14h 32m
Length of Day
13h 34m
Waxing Gibbous, 79% of the Moon is Illuminated
Apr 21
Waxing Gibbous
Apr 25
Full
May 2
Last Quarter
May 9
New
May 18
First Quarter

Hourly Weather History & Observations

Time (EDT) Temp. Windchill Dew Point Humidity Pressure Visibility Wind Dir Wind Speed Gust Speed Precip Events Conditions
12:51 AM 33.1 °F - 23.0 °F 66% 30.45 in 10.0 mi Calm Calm - N/A   Clear
1:51 AM 32.0 °F 27.5 °F 23.0 °F 69% 30.46 in 9.0 mi NE 4.6 mph - N/A   Partly Cloudy
2:51 AM 30.0 °F 26.5 °F 23.0 °F 75% 30.47 in 9.0 mi NE 3.5 mph - N/A   Partly Cloudy
3:51 AM 32.0 °F 28.7 °F 23.0 °F 69% 30.48 in 8.0 mi NE 3.5 mph - N/A   Clear
4:51 AM 30.0 °F 26.5 °F 23.0 °F 75% 30.50 in 8.0 mi NE 3.5 mph - N/A   Clear
5:51 AM 28.9 °F 22.8 °F 23.0 °F 78% 30.52 in 8.0 mi ENE 5.8 mph - N/A   Clear
6:51 AM 28.9 °F 23.9 °F 23.0 °F 78% 30.56 in 7.0 mi East 4.6 mph - N/A   Partly Cloudy
7:51 AM 30.9 °F 26.2 °F 25.0 °F 79% 30.59 in 10.0 mi ENE 4.6 mph - N/A   Partly Cloudy
8:51 AM 36.0 °F 30.3 °F 27.0 °F 70% 30.61 in 10.0 mi East 6.9 mph - N/A   Scattered Clouds
9:51 AM 39.0 °F 32.8 °F 26.1 °F 60% 30.61 in 10.0 mi East 9.2 mph - N/A   Scattered Clouds
10:51 AM 41.0 °F 36.4 °F 24.1 °F 51% 30.62 in 10.0 mi East 6.9 mph - N/A   Mostly Cloudy
11:51 AM 43.0 °F 40.3 °F 24.1 °F 47% 30.61 in 10.0 mi East 4.6 mph - N/A   Mostly Cloudy
12:51 PM 44.1 °F 40.8 °F 23.0 °F 43% 30.59 in 10.0 mi East 5.8 mph - N/A   Mostly Cloudy
1:51 PM 46.0 °F 41.9 °F 24.1 °F 42% 30.57 in 10.0 mi East 8.1 mph - N/A   Mostly Cloudy
2:51 PM 48.0 °F - 25.0 °F 41% 30.54 in 10.0 mi ENE 11.5 mph - N/A   Mostly Cloudy
3:51 PM 48.9 °F - 24.1 °F 38% 30.51 in 10.0 mi Variable 5.8 mph 17.3 mph N/A   Mostly Cloudy
4:51 PM 50.0 °F - 24.1 °F 36% 30.49 in 10.0 mi NE 9.2 mph - N/A   Mostly Cloudy
5:51 PM 50.0 °F - 23.0 °F 35% 30.48 in 10.0 mi East 5.8 mph - N/A   Mostly Cloudy
6:51 PM 50.0 °F - 23.0 °F 35% 30.48 in 10.0 mi East 9.2 mph - N/A   Mostly Cloudy
7:51 PM 48.0 °F - 23.0 °F 37% 30.48 in 10.0 mi East 6.9 mph - N/A   Mostly Cloudy
8:51 PM 45.0 °F 42.6 °F 24.1 °F 44% 30.48 in 10.0 mi ENE 4.6 mph - N/A   Mostly Cloudy
9:51 PM 43.0 °F 39.5 °F 25.0 °F 49% 30.49 in 10.0 mi ENE 5.8 mph - N/A   Overcast
10:51 PM 39.0 °F 32.8 °F 28.9 °F 67% 30.49 in 10.0 mi NE 9.2 mph - N/A   Overcast
11:51 PM 37.0 °F 31.6 °F 28.0 °F 70% 30.48 in 9.0 mi NE 6.9 mph - N/A   Scattered Clouds